Location: Moscow
(55.7500°N, 37.5830°E)
Time: 05:58:49
(UTC+03:00)

Envisat - Pass Details

Date: 27 October 2021
Orbit: 764 x 766 km, 98.2° (Epoch: 28 November)

Event Time Altitude Azimuth Distance (km) Brightness Sun altitude
Rises 18:26:33 0° 226° (SW) 3,228 7.1 -12.5°
Reaches altitude 10° 18:30:30 10° 257° (WSW) 2,308 6.9 -13.1°
Maximum altitude 18:32:24 12° 279° (W) 2,177 6.6 -13.4°
Drops below altitude 10° 18:34:17 10° 301° (WNW) 2,314 6.4 -13.6°
Sets 18:38:17 0° 332° (NNW) 3,247 6.6 -14.2°
